Location: Be?chatów
(51.3665°N, 19.3745°E)
Time: 23:06:39
(UTC+00:00)

Nadezhda 3 Rocket - Pass Details

Date: 19 May 2025
Orbit: 957 x 997 km, 82.9° (Epoch: 16 June)

Event Time Altitude Azimuth Distance (km) Brightness Sun altitude
Exits shadow 21:21:59 22° 188° (S) 1,990 5.1 -16.7°
Maximum altitude 21:26:14 89° 273° (W) 977 4.0 -16.9°
Drops below altitude 10° 21:32:32 10° 10° (N) 2,738 7.3 -17.2°
Sets 21:35:04 0° 11° (N) 3,696 8.2 -17.3°
